APRIZESAT 3 (35686 NORAD) Tracking and Keplerian Element Data

This shows tracking and keplerian element data for the satellite.

Feedback or suggestion? Click here.




ElementValue
Catalog35686
NameAPRIZESAT 3
Epoch Orbit48650
Epoch Day202.61629387
Epoch Year2018
RAAN224.0163
Inclination98.2698
Eccentricity0.0073654
Argument of Perigee154.8778
Mean Anonmoly205.6049
Mean Motion14.87221932
Decay Rate6E-07
L11 35686U 09041F 18202.61629387 .00000060 00000-0 13250-4 0 9998
L22 35686 98.2698 224.0163 0073654 154.8778 205.6049 14.87221932486503

Live tracking and technical data element details for APRIZESAT 3 (NORAD 35686). APRIZESAT 3 can be tracked NOW for your location showing map with azimuth and elevation plus other details from your city location.

Track the satellite on the map from your city or location and see movement details for azimuth, elevation, latitude, longitude, range, height, and movement on the map or in text.







IsCatalogInMostPopularTable: catalog: 35686, numindb: 33
Update: records affected: 1



GetName: 35686 APRIZESAT 3

Hit Count: updated at: Mon, 23 Jul 2018 07:57:59 GMT